Showing default

OPS 4947 (TRANSIT 17), 2965

Orbit data source: Space-Track

OPS 4947 (TRANSIT 17), 2965 is a payload satellite owned by USN NAVAIR (US) in LEO that was launched on Mon, 25 Sep 1967 UTC via an SCOUT A launch vehicle from the Air Force Western Test Range (AFWTR). Payload-class satellites include a variety of spacecraft equipped with specific instruments for various scientific and technological missions. These include communications satellites like Starlink; space stations such as the ISS; scientific satellites like the Hubble; Earth observation satellites from companies like Planet Labs, Umbra, and HawkEye 360; GPS; miniature CubeSats for education and research; and military/defense satellites.

Loading next visibility...
Identifier
2965, 1967-092A
Orbit
LEO
Last TLE update
10 hours ago
Origin
Manufacturer
APL
Mission
Defense Navigation
Bus & Motor
TRANSIT 5, Unknown motor
Mass
~50 kg wet, ~50 kg dry
Launch date (UTC)
1967-09-25 (58 years ago)
Launch vehicle
SCOUT A
Launch site
Air Force Western Test Range (AFWTR)
Object type
Payload
Rocket body
Debris
Shape & HBR
Oct Cyl + 4 Pan + 1 Rod, Unknown HBR
Radar Cross Section
7.565 m², Large (>1 m²)

Expand to show TLE details & history

TLE from 10 hours ago
0 OPS 4947 (TRANSIT 17)
1 02965U 67092A   25183.85813170  .00000077  00000-0  97347-4 0  9996
2 02965  89.2423  36.8738 0047458 351.5308  18.6393 13.53409632848949
Epoch: 2025-07-02T20:35Z
TLE epoch observation values (Epoch: 2025-07-02T20:35:42.578Z)
Latitude
10.29034°
Longitude
166.95005°
Altitude
1,028.516 km
Speed
7.355 km/s
True Right ascension
02h 28m 02s
True Declination
10° 13' 56"
Sunlit
Object was in daylight at epoch
Visualization orbit readout
Latitude
-44.09906°
Longitude
-12.48805°
Altitude
1,097.665 km
Speed
7.292 km/s
Apparent Right ascension
10h 43m 21s
Apparent Declination
-62° 06' 37"
Sunlit
Object is in full shadow
Visualization observer readout
Local Sidereal Time
18:17:01
Azimuth
217.539° SW
Elevation
-45.213°
Doppler factor
1
Orbital elements
Apogee altitude
1,092.071 km
Perigee altitude
1,021.502 km
Semi-major axis
7,434.923 km
Eccentricity
0.00475
Inclination
89.2423°
RAAN
36.8738°
Arg. of periapsis
351.5308°
True anomaly
Unknown
Mean anomaly
18.6393°
Eccentric anomaly
Unknown
Mean motion
3.38554 °/min
Orbital period
106.33 mins
BSTAR
0.000097347
Loading maneuver chart data...
Loading SW <> Apogee altitude chart data...
Loading historical data...
Loading historical data...
Loading historical data...
Loading historical data...
Loading historical data...
Loading historical data...
Loading historical data...

OPS 4947 (TRANSIT 17) Visibility forecast

Observer location: undefined°, undefined°

Span
Click to sort rows by Start time (UTC) header in descending order
Start Az.
Max El. time (UTC)
Max El. Az.
Max El.
End time (UTC)
End Az.
12 mins2025-07-03 14:23:20.246Z167.338° S2025-07-03 14:29:20.246Z64.803° ENE43.3°2025-07-03 14:35:20.246Z3.402° NNE
6 mins2025-07-03 16:13:20.246Z255.705° W2025-07-03 16:16:20.246Z287.328° WNW16.214°2025-07-03 16:19:20.246Z317.068° NNW
9 mins2025-07-04 01:33:20.246Z31.79° NE2025-07-04 01:37:20.246Z83.637° E28.77°2025-07-04 01:42:20.246Z140.88° SSE
10 mins2025-07-04 03:19:20.246Z337.364° NNW2025-07-04 03:23:20.246Z285.538° WNW32.485°2025-07-04 03:29:20.246Z215.399° SW
|